STARLINK-1043, 44748

Orbit data source: Space-Track

STARLINK-1043, 44748 is a payload satellite owned by SpaceX/Seattle (US) in LEO that was launched on Mon, 11 Nov 2019 UTC via an FALCON 9 launch vehicle from the Air Force Eastern Test Range (AFETR). Payload-class satellites include a variety of spacecraft equipped with specific instruments for various scientific and technological missions. These include communications satellites like Starlink; space stations such as the ISS; scientific satellites like the Hubble; Earth observation satellites from companies like Planet Labs, Umbra, and HawkEye 360; GPS; miniature CubeSats for education and research; and military/defense satellites.

Loading next visibility...
Identifier
44748, 2019-074AM
Orbit
LEO
Country
Flag of USUS
Related business
Manufacturer
SpaceX/Seattle
Mission
Operational Commercial Communications
Bus & Motor
STARLINK, Unknown motor
Mass
260 kg wet, ~248 kg dry
Launch date (UTC)
2019-11-11 (6 years ago)
Launch vehicle
FALCON 9
Launch site
Air Force Eastern Test Range (AFETR)
Object type
Payload
Rocket body
Debris
Shape & HBR
Box + 1 Pan, 10.1 m
Radar Cross Section
13.562 m², Large (>1 m²)

Expand to show TLE details & history
Last TLE update: 7 hours ago

TLE from 7 hours ago
0 STARLINK-1043
1 44748U 19074AM  25286.92716526  .00009976  00000-0  68762-3 0  9992
2 44748  53.0521 165.4627 0001270  81.1199 278.9934 15.06402871326079
Epoch: 2025-10-13T22:15Z
TLE epoch observation values (Epoch: 2025-10-13T22:15:07.078Z)
Latitude
Longitude
168.96028°
Altitude
547.944 km
Speed
7.589 km/s
True Right ascension
11h 01m 51s
True Declination
0° 00' 00"
Sunlit
Object was in daylight at epoch
Visualization orbit readout
Latitude
Unknown
Longitude
Unknown
Altitude
Unknown
Speed
Unknown
Apparent Right ascension
Unknown
Apparent Declination
Unknown
Sunlit
N/A
Visualization observer readout
Local Sidereal Time
00:04:01
Azimuth
Unknown
Elevation
Unknown
Doppler factor
Unknown
Orbital elements
Apogee altitude
548.353 km
Perigee altitude
546.594 km
Semi-major axis
6,925.611 km
Eccentricity
0.00013
Inclination
53.0521°
RAAN
165.4627°
Arg. of periapsis
81.1199°
True anomaly
278.97903°
Mean anomaly
278.9934°
Eccentric anomaly
278.98621°
Mean motion
3.76579 °/min
Orbital period
95.6 mins
BSTAR
0.00068762
Loading maneuver chart data...
Computing Atmospheric mass density...

Documentation

Showing up to 5 results
|